Regional Weather Roundup
Issued by NWS Newport/Morehead, NC

Current Version | Previous Version | Graphics & Text | Print | Product List | Glossary Off
Versions: 1 2 3 4 5 6 7 8 9 10 11 12 13 14 15 16 17 18 19 20 21 22 23 24 25 26 27 28 29 30 31 32 33 34 35 36 37 38 39 40 41 42 43 44 45 46 47 48 49 50

000
ASUS42 KMHX 292210
RWRMHX
WEATHER ROUNDUP FOR EASTERN NORTH CAROLINA
NATIONAL WEATHER SERVICE NEWPORT/MOREHEAD CITY NC
500 PM EST THU JAN 29 2015

NOTE: "FAIR" INDICATES FEW OR NO CLOUDS BELOW 12,000 FEET
WITH NO SIGNIFICANT WEATHER AND/OR OBSTRUCTIONS TO VISIBILITY

NCZ015>017-031-032-045>047-102-103-292300-
NORTH COAST

CITY           SKY/WX    TMP DP  RH WIND       PRES   REMARKS
EDENTON        MOCLDY    43  22  44 S6        30.20S
ELIZABETH CITY MOCLDY    40  21  46 SW7       30.22S
KITTY HAWK     CLOUDY    37  25  60 CALM      30.21S
MANTEO         CLOUDY    37  28  70 S5        30.23R

$$

NCZ045>047-081-094-103-104-292300-
CENTRAL COAST

CITY           SKY/WX    TMP DP  RH WIND       PRES   REMARKS
FRISCO         CLOUDY    38  25  59 W3        30.23F
SWANQUARTER    NOT AVBL

$$

NCZ095-097-098-100-101-292300-
SOUTHERN COAST

CITY           SKY/WX    TMP DP  RH WIND       PRES   REMARKS
BEAUFORT       CLOUDY    43  26  51 SW5       30.24F
CEDAR ISLAND   NOT AVBL
JACKSONVILLE   PTCLDY    46  21  37 S7        30.22S
PINEY ISLAND     N/A    N/A N/A N/A MISG      30.24S
WILMINGTON     MOCLDY    49  20  31 SW10      30.22F


$$

NCZ011>013-027>030-043-044-078>080-089-090>093-098-292300-
COASTAL PLAIN

CITY           SKY/WX    TMP DP  RH WIND       PRES   REMARKS
AHOSKIE        MOCLDY    41  17  37 S6        30.17F
CLINTON        CLEAR     50  20  31 S5        30.19F
ELIZABETHTOWN  PTCLDY    51  17  26 SW5       30.19F
GOLDSBORO      PTCLDY    47  19  32 S2        30.16F
GREENVILLE     PTCLDY    45  18  33 S7        30.19F
HAVELOCK       MOCLDY    45  20  36 S6        30.24S
KENANSVILLE    CLEAR     48  14  25 CALM      30.20F
KINSTON        CLEAR     46  16  29 S8        30.19F
NEW BERN       MOCLDY    49  13  23 S7        30.23S
RICHLANDS      CLEAR     48  18  29 S8        30.22S
ROCKY MOUNT    MOCLDY    45  18  34 S7        30.17F
WASHINGTON     MOCLDY    45  16  31 S5        30.21S
WHITEVILLE     PTCLDY    50  27  41 S9        30.20F

$$

AMZ130-135-150-152-154-156-158-170-250-252-270-ANZ085-086-088-633-658-670-292300-
MARINE OBSERVATIONS

STATION/POSITION TIME  TEMP    WIND        PRES    WAVE   SWELL
                       AIR SEA DIR/SP/G            HT/PER HT/PER
                 (UTC) (F)     (DEG/KT/KT) (MB)    (FT/S) (FT/S)
CHESAPEAKE LIGHT 2100   36     180/ 11/ 12 1022.9
64 E VA BEACH    2200   40 49  230/  6/ 10 1022.5    4/11   3/11
DUCK             2200   38 44  220/  4/  5 1022.3
2 E DUCK         2200      42                N/A     3/11   2/11
10 NE DUCK       2200      45                N/A     4/11   2/11
OREGON INLET     2200   38 42  210/  8/  9 1023.5
13E OREGON INLT  2200      43                N/A     4/12   2/12
HATTERAS CG      2200   39 44  250/  3/  5 1023.9
DIAMOND BUOY     2200   43 71  280/  4/  8 1023.7    5/10   5/10
17 S OCRACOKE    NOT AVBL
CAPE LOOKOUT     2100   42     230/  5/  6 1024.0
BEAUFORT LAB     2200   44 46  220/  4/  6 1022.8
27 SE WRIGHTSVLE NOT AVBL
5 SE WRIGHTSVLE  2100   48 52  210/  8/  8 1023.8
225 S CAPE HAT   2140   57 72  300/  4/  8 1024.6    6/ 9   7/ 9
41 SE CHARLESTON 2200   58 68  220/ 10/ 14 1023.3    3/11   3/11

$$


USA.gov is the U.S. government's official web portal to all federal, state and local government web resources and services.